Weather History for Ely, NV

Change the Weather History Date:

Sunday, January 12, 2014

  Actual Average Record
Temperature  
Mean Temperature 28 °F 25 °F  
Max Temperature 38 °F 39 °F 59 °F (1983)
Min Temperature 18 °F 11 °F -25 °F (1963)
Degree Days  
Heating Degree Days 37 40  
Month to date heating degree days 412 480  
Since 1 July heating degree days 3501 3580  
Cooling Degree Days 0 0  
Month to date cooling degree days 0 0  
Year to date cooling degree days 0 0  
Moisture  
Dew Point 18 °F    
Average Humidity 61    
Maximum Humidity 84    
Minimum Humidity 38    
Precipitation  
Precipitation 0.04 in 0.02 in 0.42 in (1960)
Month to date precipitation 0.04 0.28  
Year to date precipitation 0.04 0.28  
Snow  
Snow 1.20 in 0.30 in 5.10 in (1971)
Month to date snowfall 1.2 3.8  
Since 1 July snowfall 27.0 21.7  
Snow Depth 1.00 in    
Sea Level Pressure  
Sea Level Pressure 30.20 in    
Wind  
Wind Speed 9 mph (WNW)    
Max Wind Speed 24 mph    
Max Gust Speed 33 mph    
Visibility 9 miles    
Events Snow    
T = Trace of Precipitation, MM = Missing Value Source: NWS Daily Summary

Daily Weather History Graph

Daily Weather History Graph

Search for Another Location

Airport:

Trip Planner

Search our weather history database for the weather conditions in past years. The results will help you decide how hot, cold, wet, or windy it might be!

Date:

Astronomy

Jan. 12, 2014 Rise Set
Actual Time 6:58 AM PST 4:37 PM PST
Civil Twilight 6:28 AM PST 5:07 PM PST
Nautical Twilight 5:55 AM PST 5:40 PM PST
Astronomical Twilight 5:23 AM PST 6:12 PM PST
Moon 2:08 PM PST (1/12) 4:00 AM PST (1/12)
Length of Visible Light 10h 38m
Length of Day
9h 39m
Waxing Gibbous, 90% of the Moon is Illuminated
Jan 12
Waxing Gibbous
Jan 15
Full
Jan 23
Last Quarter
Jan 30
New
Feb 6
First Quarter

Hourly Weather History & Observations

Time (PST) Temp. Windchill Dew Point Humidity Pressure Visibility Wind Dir Wind Speed Gust Speed Precip Events Conditions
12:53 AM 35.1 °F 26.9 °F 25.0 °F 67% 29.90 in 10.0 mi West 11.5 mph 20.7 mph 0.00 in   Mostly Cloudy
1:53 AM 33.1 °F 23.0 °F 26.1 °F 75% 29.95 in 9.0 mi NW 15.0 mph 18.4 mph 0.00 in   Overcast
2:22 AM 30.9 °F 19.1 °F 24.1 °F 76% 30.04 in 3.0 mi NW 18.4 mph 25.3 mph 0.00 in Snow Light Snow
2:28 AM 30.0 °F 19.5 °F 25.0 °F 82% 30.05 in 1.8 mi WNW 13.8 mph 24.2 mph 0.00 in Snow Light Snow
2:38 AM 28.9 °F 19.2 °F 26.1 °F 89% 30.06 in 1.2 mi WNW 11.5 mph - 0.00 in Snow Light Snow
2:49 AM 28.4 °F 19.1 °F 26.6 °F 93% 30.05 in 1.8 mi West 10.4 mph - 0.00 in Snow Light Snow
2:53 AM 28.0 °F 19.3 °F 25.0 °F 88% 30.00 in 2.5 mi WNW 9.2 mph - 0.00 in Snow Light Snow
3:01 AM 27.0 °F 18.0 °F 24.1 °F 89% 30.05 in 9.0 mi West 9.2 mph - 0.00 in   Scattered Clouds
3:53 AM 28.0 °F 14.6 °F 18.0 °F 66% 30.01 in 10.0 mi West 20.7 mph 26.5 mph 0.00 in   Clear
4:53 AM 26.1 °F 16.2 °F 16.0 °F 66% 30.06 in 10.0 mi WNW 10.4 mph - N/A   Clear
5:53 AM 27.0 °F 18.0 °F 16.0 °F 63% 30.09 in 10.0 mi North 9.2 mph - N/A   Clear
6:53 AM 28.9 °F 21.9 °F 15.1 °F 56% 30.12 in 10.0 mi Variable 6.9 mph - N/A   Overcast
7:53 AM 30.0 °F 21.7 °F 15.1 °F 54% 30.14 in 10.0 mi WNW 9.2 mph - N/A   Overcast
8:53 AM 28.0 °F 22.8 °F 15.1 °F 58% 30.18 in 10.0 mi WNW 4.6 mph - N/A   Clear
9:53 AM 33.1 °F 27.7 °F 12.9 °F 43% 30.18 in 10.0 mi Variable 5.8 mph - N/A   Overcast
10:53 AM 34.0 °F 28.0 °F 12.9 °F 42% 30.17 in 10.0 mi Variable 6.9 mph - N/A   Clear
11:53 AM 35.1 °F 30.1 °F 12.9 °F 40% 30.16 in 10.0 mi North 5.8 mph - N/A   Clear
12:53 PM 36.0 °F 28.0 °F 12.9 °F 39% 30.18 in 10.0 mi North 11.5 mph 18.4 mph N/A   Clear
1:53 PM 36.0 °F 27.5 °F 14.0 °F 41% 30.21 in 10.0 mi NNW 12.7 mph - N/A   Clear
2:53 PM 36.0 °F 28.5 °F 15.1 °F 43% 30.26 in 10.0 mi NNW 10.4 mph - N/A   Clear
3:53 PM 35.1 °F 29.3 °F 14.0 °F 42% 30.30 in 10.0 mi NNE 6.9 mph - N/A   Clear
4:53 PM 30.0 °F 24.1 °F 17.1 °F 59% 30.35 in 10.0 mi WNW 5.8 mph - N/A   Clear
5:53 PM 28.9 °F 19.8 °F 17.1 °F 61% 30.38 in 10.0 mi NW 10.4 mph - N/A   Clear
6:53 PM 28.9 °F 22.8 °F 16.0 °F 58% 30.40 in 10.0 mi East 5.8 mph - N/A   Clear
7:53 PM 26.1 °F - 16.0 °F 66% 30.43 in 10.0 mi Calm Calm - N/A   Clear
8:53 PM 25.0 °F 19.3 °F 18.0 °F 75% 30.47 in 10.0 mi SE 4.6 mph - N/A   Mostly Cloudy
9:53 PM 21.9 °F 11.7 °F 17.1 °F 82% 30.48 in 10.0 mi South 9.2 mph - N/A   Partly Cloudy
10:53 PM 19.9 °F 9.3 °F 15.1 °F 81% 30.48 in 10.0 mi SSE 9.2 mph - N/A   Clear
11:53 PM 19.0 °F 8.2 °F 14.0 °F 81% 30.48 in 10.0 mi South 9.2 mph - N/A   Partly Cloudy